Fort Madison, IA

5:45 PM CDT on March 28, 2017 (GMT -0500)
Fort Madison Municipal

Weather History for KFSW - November, 2011

Change the Weather History Date:

Saturday, November 12, 2011

  Actual Average Record
Temperature  
Mean Temperature 52 °F -  
Max Temperature 62 °F 49 °F 77 °F (1964)
Min Temperature 42 °F 30 °F 10 °F (1986)
Degree Days  
Heating Degree Days 13    
Growing Degree Days 2 (Base 50)    
Moisture  
Dew Point 35 °F    
Average Humidity 54    
Maximum Humidity 76    
Minimum Humidity 27    
Precipitation  
Precipitation 0.00 in - - ()
Sea Level Pressure  
Sea Level Pressure 29.67 in    
Wind  
Wind Speed 11 mph (South)    
Max Wind Speed 18 mph    
Max Gust Speed 28 mph    
Visibility 10 miles    
Events      
Averages and records for this station are not official NWS values.
T = Trace of Precipitation, MM = Missing Value Source: NWS Daily Summary

Daily Weather History Graph

Daily Weather History Graph

Search for Another Location

Airport or City:

Trip Planner

Search our weather history database for the weather conditions in past years. The results will help you decide how hot, cold, wet, or windy it might be!

Date:

Astronomy

Nov. 12, 2011 Rise Set
Actual Time 6:48 AM CST 4:50 PM CST
Civil Twilight 6:19 AM CST 5:19 PM CST
Nautical Twilight 5:46 AM CST 5:52 PM CST
Astronomical Twilight 5:13 AM CST 6:24 PM CST
Moon 6:05 PM CST (11/12) 8:31 AM CST (11/12)
Length of Visible Light 11h 00m
Length of Day
10h 02m
Full, 97% of the Moon is Illuminated
Nov 12
Full
Nov 18
Last Quarter
Nov 25
New
Dec 2
First Quarter
Dec 10
Full

Hourly Weather History & Observations

Time (CST) Temp. Windchill Dew Point Humidity Pressure Visibility Wind Dir Wind Speed Gust Speed Precip Events Conditions
12:15 AM 46.4 °F 41.9 °F 35.6 °F 66% 29.77 in 10.0 mi SSW 9.2 mph - N/A   Clear
12:35 AM 46.4 °F 41.9 °F 35.6 °F 66% 29.77 in 10.0 mi SSW 9.2 mph - N/A   Clear
12:55 AM 46.4 °F 41.5 °F 35.6 °F 66% 29.77 in 10.0 mi SSW 10.4 mph - N/A   Clear
1:15 AM 46.4 °F 41.5 °F 35.6 °F 66% 29.77 in 10.0 mi SSW 10.4 mph - N/A   Clear
1:35 AM 46.4 °F 41.9 °F 35.6 °F 66% 29.77 in 10.0 mi SSW 9.2 mph - N/A   Clear
1:55 AM 44.6 °F 39.7 °F 35.6 °F 71% 29.77 in 10.0 mi SW 9.2 mph - N/A   Clear
2:15 AM 44.6 °F 39.7 °F 35.6 °F 71% 29.78 in 10.0 mi SSW 9.2 mph - N/A   Clear
2:35 AM 44.6 °F 40.2 °F 35.6 °F 71% 29.77 in 10.0 mi SSW 8.1 mph - N/A   Clear
2:55 AM 44.6 °F 39.7 °F 35.6 °F 71% 29.76 in 10.0 mi SSW 9.2 mph - N/A   Clear
3:15 AM 44.6 °F 39.7 °F 35.6 °F 71% 29.76 in 10.0 mi SSW 9.2 mph - N/A   Clear
3:55 AM 44.6 °F 39.2 °F 35.6 °F 71% 29.77 in 10.0 mi SSW 10.4 mph - N/A   Clear
4:15 AM 44.6 °F 39.2 °F 35.6 °F 71% 29.76 in 10.0 mi SSW 10.4 mph - N/A   Clear
4:35 AM 44.6 °F 39.7 °F 35.6 °F 71% 29.76 in 10.0 mi SSW 9.2 mph - N/A   Clear
4:55 AM 42.8 °F 37.0 °F 35.6 °F 76% 29.77 in 10.0 mi South 10.4 mph - N/A   Clear
5:15 AM 42.8 °F 37.0 °F 35.6 °F 76% 29.77 in 10.0 mi SSW 10.4 mph - N/A   Clear
5:35 AM 44.6 °F 38.8 °F 35.6 °F 71% 29.77 in 10.0 mi SSW 11.5 mph - N/A   Clear
6:15 AM 44.6 °F 39.2 °F 35.6 °F 71% 29.77 in 10.0 mi SSW 10.4 mph - N/A   Clear
6:55 AM 44.6 °F 39.2 °F 33.8 °F 66% 29.77 in 10.0 mi SSW 10.4 mph - N/A   Clear
7:15 AM 44.6 °F 40.2 °F 35.6 °F 71% 29.77 in 10.0 mi South 8.1 mph - N/A   Clear
7:35 AM 46.4 °F 41.5 °F 35.6 °F 66% 29.77 in 10.0 mi South 10.4 mph - N/A   Clear
7:55 AM 46.4 °F 41.9 °F 33.8 °F 62% 29.77 in 10.0 mi South 9.2 mph - N/A   Clear
8:15 AM 46.4 °F 42.4 °F 33.8 °F 62% 29.77 in 10.0 mi South 8.1 mph - N/A   Clear
8:35 AM 46.4 °F 41.9 °F 33.8 °F 62% 29.77 in 10.0 mi South 9.2 mph - N/A   Clear
9:15 AM 50.0 °F - 33.8 °F 54% 29.76 in 10.0 mi South 11.5 mph - N/A   Clear
9:35 AM 51.8 °F - 33.8 °F 50% 29.77 in 10.0 mi South 10.4 mph - N/A   Clear
9:55 AM 53.6 °F - 32.0 °F 44% 29.77 in 10.0 mi South 11.5 mph - N/A   Clear
10:15 AM 55.4 °F - 32.0 °F 41% 29.76 in 10.0 mi South 11.5 mph 16.1 mph N/A   Clear
10:35 AM 55.4 °F - 30.2 °F 38% 29.75 in 10.0 mi South 12.7 mph 16.1 mph N/A   Clear
10:55 AM 55.4 °F - 30.2 °F 38% 29.75 in 10.0 mi South 12.7 mph - N/A   Clear
11:15 AM 57.2 °F - 30.2 °F 36% 29.74 in 10.0 mi South 12.7 mph - N/A   Clear
11:35 AM 57.2 °F - 30.2 °F 36% 29.72 in 10.0 mi South 12.7 mph - N/A   Clear
12:15 PM 57.2 °F - 30.2 °F 36% 29.69 in 10.0 mi South 16.1 mph 21.9 mph N/A   Clear
12:35 PM 57.2 °F - 30.2 °F 36% 29.68 in 10.0 mi South 16.1 mph - N/A   Clear
1:15 PM 60.8 °F - 30.2 °F 31% 29.65 in 10.0 mi South 15.0 mph - N/A   Clear
1:35 PM 62.6 °F - 30.2 °F 30% 29.63 in 10.0 mi South 15.0 mph 19.6 mph N/A   Clear
1:55 PM 60.8 °F - 30.2 °F 31% 29.63 in 10.0 mi South 13.8 mph 21.9 mph N/A   Clear
2:15 PM 62.6 °F - 30.2 °F 30% 29.62 in 10.0 mi South 13.8 mph 17.3 mph N/A   Clear
2:35 PM 62.6 °F - 30.2 °F 30% 29.61 in 10.0 mi South 17.3 mph 21.9 mph N/A   Clear
2:55 PM 62.6 °F - 28.4 °F 27% 29.61 in 10.0 mi South 16.1 mph 24.2 mph N/A   Clear
3:15 PM 60.8 °F - 28.4 °F 29% 29.61 in 10.0 mi South 12.7 mph 26.5 mph N/A   Clear
3:35 PM 60.8 °F - 30.2 °F 31% 29.59 in 10.0 mi South 12.7 mph 18.4 mph N/A   Clear
3:55 PM 59.0 °F - 32.0 °F 36% 29.58 in 10.0 mi South 11.5 mph 16.1 mph N/A   Clear
4:15 PM 59.0 °F - 32.0 °F 36% 29.57 in 10.0 mi South 11.5 mph 16.1 mph N/A   Clear
4:35 PM 59.0 °F - 33.8 °F 39% 29.57 in 10.0 mi South 12.7 mph - N/A   Clear
4:55 PM 57.2 °F - 33.8 °F 41% 29.56 in 10.0 mi South 11.5 mph - N/A   Clear
5:15 PM 59.0 °F - 30.2 °F 34% 29.56 in 10.0 mi South 17.3 mph 27.6 mph N/A   Clear
5:35 PM 57.2 °F - 30.2 °F 36% 29.56 in 10.0 mi South 18.4 mph 21.9 mph N/A   Clear
5:55 PM 57.2 °F - 30.2 °F 36% 29.57 in 10.0 mi South 16.1 mph 25.3 mph N/A   Clear
6:15 PM 57.2 °F - 32.0 °F 38% 29.57 in 10.0 mi South 12.7 mph - N/A   Clear
6:35 PM 55.4 °F - 33.8 °F 44% 29.57 in 10.0 mi South 11.5 mph 18.4 mph N/A   Clear
6:55 PM 55.4 °F - 33.8 °F 44% 29.57 in 10.0 mi South 12.7 mph 20.7 mph N/A   Clear
7:35 PM 53.6 °F - 35.6 °F 51% 29.56 in 10.0 mi South 8.1 mph - N/A   Clear
8:15 PM 51.8 °F - 35.6 °F 54% 29.56 in 10.0 mi SSE 8.1 mph - N/A   Clear
8:35 PM 50.0 °F - 37.4 °F 62% 29.56 in 10.0 mi SSE 6.9 mph - N/A   Clear
8:55 PM 50.0 °F - 37.4 °F 62% 29.56 in 10.0 mi SSE 8.1 mph - N/A   Clear
9:15 PM 51.8 °F - 39.2 °F 62% 29.55 in 10.0 mi South 11.5 mph 16.1 mph N/A   Clear
9:35 PM 53.6 °F - 41.0 °F 62% 29.53 in 10.0 mi South 11.5 mph 17.3 mph N/A   Clear
9:55 PM 53.6 °F - 42.8 °F 67% 29.53 in 10.0 mi South 13.8 mph 19.6 mph N/A   Clear
10:15 PM 55.4 °F - 44.6 °F 67% 29.52 in 10.0 mi South 16.1 mph 25.3 mph N/A   Clear
10:35 PM 55.4 °F - 44.6 °F 67% 29.51 in 10.0 mi South 15.0 mph 20.7 mph N/A   Clear
10:55 PM 55.4 °F - 44.6 °F 67% 29.49 in 10.0 mi South 17.3 mph 24.2 mph N/A   Clear
11:15 PM 55.4 °F - 46.4 °F 72% 29.50 in 10.0 mi SSW 15.0 mph 24.2 mph N/A   Clear
11:35 PM 55.4 °F - 46.4 °F 72% 29.50 in 10.0 mi SSW 16.1 mph 26.5 mph N/A   Clear
11:55 PM 55.4 °F - 46.4 °F 72% 29.49 in 10.0 mi South 15.0 mph 23.0 mph N/A   Clear